Regional Weather Roundup
Issued by NWS

Home | Current Version | Previous Version | Graphics & Text | Print | Product List | Glossary On
Versions: 1 2 3 4 5 6 7 8 9 10 11 12 13 14 15 16 17 18 19 20 21 22 23 24 25 26 27 28 29 30 31 32 33 34 35 36 37 38 39 40 41 42 43 44 45 46 47 48 49 50
000
ASUS43 KTOP 071659
RWRKS

WEATHER ROUNDUP FOR KANSAS
NATIONAL WEATHER SERVICE GOODLAND KS
1100 AM CST WED DEC 07 2016

NOTE:  "FAIR" INDICATES FEW OR NO CLOUDS BELOW 12,000 FEET WITH NO
SIGNIFICANT WEATHER AND/OR OBSTRUCTIONS TO VISIBILITY.

KSZ001>006-013>018-027>032-041>047-071800-
NORTHWEST KANSAS

CITY           SKY/WX    TMP DP  RH WIND       PRES   REMARKS
GOODLAND       LGT SNOW  13   8  81 NE12      30.25R WCI  -1
HAYS           LGT SNOW  21  17  84 N15       30.33R FOG     WCI   8
HILL CITY      LGT SNOW  19  14  81 N13       30.36R VSB 3/4 WCI   6
RUSSELL        LGT SNOW  21  16  81 N15       30.32R VSB 1   WCI   8
$$

KSZ061>065-074>080-084>089-071800-
SOUTHWEST KANSAS

CITY           SKY/WX    TMP DP  RH WIND       PRES   REMARKS
DODGE CITY     FLURRIES  24  19  81 NE16      30.22R WCI  11
ELKHART          N/A    N/A N/A N/A MISG        N/A
GARDEN CITY    LGT SNOW  20  16  84 NE21G26   30.23R FOG     WCI   4
GREAT BEND     CLOUDY    24  15  68 N18       30.30R WCI  10
LIBERAL        CLOUDY    30  16  55 E12       30.15R WCI  21
$$

KSZ066>073-081>083-090>101-071800-
SOUTHEAST KANSAS

CITY           SKY/WX    TMP DP  RH WIND       PRES   REMARKS
CHANUTE        CLOUDY    36  17  46 N7        30.28R
COFFEYVILLE    CLOUDY    36  20  52 NE8       30.26F
HUTCHINSON     CLOUDY    30  17  58 NE14G22   30.30R WCI  19
MEDICINE LODGE   N/A     35  15  44 NE14      30.23R WCI  26
NEWTON         CLOUDY    28  19  69 NE14      30.30R WCI  17
PARSONS        CLOUDY    35  20  54 NE7       30.27S
WICHITA INTL   CLOUDY    34  16  47 NE16      30.27R WCI  24
WICHITA JABRA  CLOUDY    32  17  54 NE16      30.27R WCI  21
WINFIELD       CLOUDY    37  14  38 NE12      30.25R WCI  29
$$

KSZ007>012-019>026-033>040-048>060-102>105-071800-
NORTHEAST KANSAS

CITY           SKY/WX    TMP DP  RH WIND       PRES   REMARKS
CONCORDIA      LGT SNOW  20  16  84 N10       30.36S FOG     WCI   9
EMPORIA        LGT SNOW  28  19  69 N12       30.31R WCI  18
LAWRENCE       CLOUDY    28  18  66 NW13      30.35R WCI  17
MANHATTAN      LGT SNOW  27  20  75 N8        30.36R
OLATHE IND     CLOUDY    29  15  56 NW10      30.32R WCI  20
OLATHE EXE     CLOUDY    28  12  51 N7        30.31R
SALINA         LGT SNOW  26  19  74 N14       30.37R WCI  14
TOPEKA BILLARD LGT SNOW  26  19  74 NW8       30.35R
TOPEKA FORBES  LGT SNOW  28  18  66 NW13      30.34R WCI  17
$$



USA.gov is the U.S. government's official web portal to all federal, state and local government web resources and services.